Regional Weather Roundup
Issued by NWS

Home | Current Version | Previous Version | Graphics & Text | Print | Product List | Glossary Off
Versions: 1 2 3 4 5 6 7 8 9 10 11 12 13 14 15 16 17 18 19 20 21 22 23 24 25 26 27 28 29 30 31 32 33 34 35 36 37 38 39 40 41 42 43 44 45 46 47 48 49 50

079
ASUS43 KIND 282109
RWRIN

WEATHER ROUNDUP FOR INDIANA
NATIONAL WEATHER SERVICE INDIANAPOLIS IN
500 PM EDT SUN MAY 28 2017

NOTE: "FAIR" INDICATES FEW OR NO CLOUDS BELOW 12,000 FEET WITH NO
SIGNIFICANT WEATHER AND/OR OBSTRUCTIONS TO VISIBILITY.

* - STATION DOES NOT REPORT WEATHER SUCH AS PRECIPITATION OR FOG.

+ - STATION NOT QUALITY CONTROLLED BY THE NATIONAL WEATHER SERVICE.
    USE DATA WITH CAUTION...ESPECIALLY DEWPOINT AND RELATIVE
    HUMIDITY OBSERVATIONS.

INZ001>003-010>013-019-020-282200-
NORTHWEST INDIANA

CITY           SKY/WX    TMP DP  RH WIND       PRES   REMARKS
GARY /AIRPORT/ MOSUNNY   66  55  68 CALM      29.74F
KNOX *+        MOSUNNY   75  52  43 NW13      29.70S
LA PORTE +     SUNNY     73  61  68 NW13      29.72S
MICHIGAN CITY+ MOSUNNY   68  57  68 N12       29.73S
MONTICELLO +   MOSUNNY   80  58  46 NW15      29.70R
RENSSELAER +   CLOUDY    77  54  44 NW14      29.71R
VALPARAISO     MOSUNNY   75  61  61 NW10      29.72S

$$

LMZ046-743>745-282200-
SOUTHERN LAKE MICHIGAN

STATION/POSITION TIME  TEMP    WIND        PRES    WAVE
                       AIR SEA DIR/SP/G            HT
                 (UTC) (F)     (DEG/KT/KT) (MB)    (FT)
BURNS HARBOR     2040   57     320/  4/  8 1007.5R
MICHIGAN CITY    2040   59     320/ 11/ 12   N/A
5NW MICH CITY    2100   56 57  330/  4/  6   N/A     1

$$

INZ004-005-014>016-021>024-282200-
NORTH CENTRAL INDIANA

CITY           SKY/WX    TMP DP  RH WIND       PRES   REMARKS
ELKHART        CLOUDY    75  61  60 NW12G18   29.69F
GOSHEN         CLOUDY    77  60  55 NW17G23   29.68S
LOGANSPORT +   MOSUNNY   77  66  69 SW12      29.71S
PERU/GRISSOM   PTSUNNY   77  67  71 SW13      29.70S
ROCHESTER +    MOSUNNY   79  64  61 NW9       29.70S
SOUTH BEND     MOSUNNY   74  62  66 NW10      29.70F
WARSAW +       MOSUNNY   73  66  78 CALM      29.69F

$$

INZ006>009-017-018-025>027-282200-
NORTHEAST INDIANA

CITY           SKY/WX    TMP DP  RH WIND       PRES   REMARKS
ANGOLA *+      SUNNY     66  57  72 S6        29.69R
AUBURN +       RAIN      66  63  88 SW3       29.71R
FORT WAYNE     PTSUNNY   76  65  68 W17       29.69S
HUNTINGTON +   CLOUDY    70  59  67 W5G18     29.71R
KENDALLVILLE + CLOUDY    66  63  91 S5        29.72R

$$

INZ028-029-035-036-043>045-051>053-282200-
WEST CENTRAL INDIANA

CITY           SKY/WX    TMP DP  RH WIND       PRES   REMARKS
CRAWFORDSVL +  TSTM     -17 -17 100 SW17G25   29.77R VSB 1/2 WCI -43
GREENCASTLE +  PTSUNNY   72  61  68 SW3       29.77S
LAFAYETTE      PTSUNNY   77  61  57 W13       29.71S
TERRE HAUTE    TSTM      72  64  76 NW7       29.77R

$$

INZ030>032-037>040-046>048-054>057-064-065-282200-
CENTRAL INDIANA

CITY           SKY/WX    TMP DP  RH WIND       PRES   REMARKS
CP ATTERBURY + PTSUNNY   73  63  68 SW8       29.77S
COLUMBUS       PTSUNNY   75  61  60 SW12      29.77S
FISHERS *+     PTSUNNY   73  64  73 W9        29.75
FRANKFORT +    MOSUNNY   73  68  85 SW12      29.76S
GREENWOOD *+   PTSUNNY   76  61  61 W13       29.77R
INDIANAPOLIS   CLOUDY    74  61  63 SW16      29.76R
-EAGLE CREEK   PTSUNNY   74  61  63 SW7       29.75R
KOKOMO +       PTSUNNY   73  66  78 SW15      29.73S
MARION +       CLOUDY    73  64  73 W15       29.72S
MT COMFORT *+    N/A    N/A N/A N/A MISG        N/A
SHELBYVILLE    PTSUNNY   78  62  57 SW13      29.75S
ZIONSVILLE +   PTSUNNY   72  62  71 SW14      29.76R

$$

INZ033-034-041-042-049-050-058-059-282200-
EAST CENTRAL INDIANA

CITY           SKY/WX    TMP DP  RH WIND       PRES   REMARKS
MUNCIE         MOSUNNY   78  61  55 W12G21    29.71F
RICHMOND +     SUNNY     73  61  64 SW17      29.78S

$$

INZ060-061-067>069-081>083-085>088-282200-
SOUTHWEST INDIANA

CITY           SKY/WX    TMP DP  RH WIND       PRES   REMARKS
EVANSVILLE     PTSUNNY   77  63  61 SW13      29.83S
HUNTINGBURG *+ CLOUDY    74  65  73 SW12      29.82F
WASHINGTON +   CLOUDY    77  61  57 W8        29.79S

$$

INZ062-063-066-070>080-084-089>092-282200-
SOUTH CENTRAL AND SOUTHEAST INDIANA

CITY           SKY/WX    TMP DP  RH WIND       PRES   REMARKS
BEDFORD +      PTSUNNY   75  63  64 SW9G16    29.79S
BLOOMINGTON    PTSUNNY   76  62  62 W10G21    29.78S
MADISON *+     CLOUDY    72  63  73 SW10G16   29.83F
NORTH VERNON + CLOUDY    72  63  73 SW15      29.79F
SEYMOUR +      CLOUDY    75  63  64 SW12G18   29.78F

$$





USA.gov is the U.S. government's official web portal to all federal, state and local government web resources and services.